Terminal Aerodrome Forecast
Issued by NWS Grand Forks, ND

Home | Current Version | Previous Version | Graphics & Text | Print | Product List | Glossary On
Versions: 1 2 3 4 5 6 7 8 9 10 11 12 13 14 15 16 17
000
FTUS43 KFGF 311300 AAA
TAFGFK
TAF AMD
KGFK 311325Z 3113/0112 01014G22KT P6SM BKN090
     FM311600 01017G25KT P6SM BKN060
     FM010000 01017KT P6SM BKN070
     FM010900 36011KT P6SM BKN150=

USA.gov is the U.S. government's official web portal to all federal, state and local government web resources and services.